Skip Page Navigation
NASA JPL Caltech
NASA Logo - Jet Propulsion Laboratory + View the NASA Portal
+ Near-Earth Object (NEO) Program
Search JPL
JPL Home Earth Solar System Stars & Galaxies Technology
JPL Solar System Dynamics
BODIES ORBITS EPHEMERIDES TOOLS PHYSICAL DATA DISCOVERY FAQ SITE MAP
JPL Small-Body Database Browser
Search: [ help ]  
308635 (2005 YU55)
Classification: Apollo [NEO, PHA]          SPK-ID: 2308635
Ephemeris | Orbit Diagram | Orbital Elements | Physical Parameters | Discovery Circumstances | Close-Approach Data ]

[ hide orbit diagram ]
Orbit Diagram
Note: Make sure you have Java enabled on your browser to see the applet. This applet is provided as a 3D orbit visualization tool. The applet was implemented using 2-body methods, and hence should not be used for determining accurate long-term trajectories (over several years or decades) or planetary encounter circumstances. For accurate long-term ephemerides, please instead use our Horizons system.
Orbit Viewer

Additional Notes: the orbits shown in the applet are color coded. The planets are white lines, and the asteroid/comet is a blue line. The bright white line indicates the portion of the orbit that is above the ecliptic plane, and the darker portion is below the ecliptic plane. Likewise for the asteroid/comet orbit, the light blue indicates the portion above the ecliptic plane, and the dark blue the portion below the ecliptic plane.

Orbit Viewer applet originally written and kindly provided by Osamu Ajiki (AstroArts), and further modified by Ron Baalke (JPL).


Orbital Elements at Epoch 2456400.5 (2013-Apr-18.0) TDB
Reference: JPL 118 (heliocentric ecliptic J2000)
 Element Value Uncertainty (1-sigma)   Units 
e .4304784360109137 1.8163e-09  
a 1.157365898663562 8.5341e-09 AU
q .659144836714506 3.9467e-09 AU
i .340591506941859 7.8196e-07 deg
node 35.90151585509064 2.672e-05 deg
peri 273.6028889701172 2.6459e-05 deg
M 103.6358626726919 5.3699e-06 deg
tp 2456269.578185482517
(2012-Dec-08.07818548)
5.3358e-06 JED
period 454.7832382613362
1.25
5.0302e-06
1.377e-08
d
yr
n .7915859022779769 8.7555e-09 deg/d
Q 1.655586960612617 1.2208e-08 AU
  Orbit Determination Parameters
   # obs. used (total)      3505  
   # delay obs. used      9  
   # Doppler obs. used      10  
   data-arc span      2183 days (5.98 yr)  
   first obs. used      2005-12-24  
   last obs. used      2011-12-16  
   planetary ephem.      DE405  
   SB-pert. ephem.      SB405-CPV-2  
   condition code      0  
   fit RMS      .31506  
   data source      ORB  
   producer      Otto Matic  
   solution date      2013-Apr-29 15:41:34  

Additional Information
 Earth MOID = .000463764 AU 
 T_jup = 5.347 
[ show covariance matrix ]

Ephemeris | Orbit Diagram | Orbital Elements | Physical Parameters | Discovery Circumstances | Close-Approach Data ]

Physical Parameter Table
Parameter Symbol Value Units Sigma Reference Notes
absolute magnitude H 21.1 mag .1 The Astronomer's Telegram, #3763  
magnitude slope G -0.12   n/a The Astronomer's Telegram, #3763  
diameter diameter 0.4 km n/a 2010 radar result http://echo.jpl.nasa.gov/asteroids/2005YU55/2005YU55_planning.html
rotation period rot_per 18 h n/a 2010 radar result http://echo.jpl.nasa.gov/asteroids/2005YU55/2005YU55_planning.html
SMASSII spectral type spec_B C type   n/a M. Hicks et al., ATel 2571, 2010 also R. Binzel, personal communication

308635 (2005 YU55)          Discovered 2005-Dec-28 by Spacewatch at Kitt Peak (691)
Reference: 20111210/Numbers.arcLast Updated: 2011-12-12

[ hide close-approach data ]
Close-Approach Data   ...sorted by Date/Time (TDB)
Date/Time (TDB) Time Uncertainty
(days_HH:MM)
Body Nominal Distance (AU) Minimum Distance (AU) Maximum Distance (AU) V-relative (km/s) V-infinity (km/s) JD (TDB) Time Uncertainty (minutes) Semi-major axis (km) Semi-minor axis (km) range-LOV angle (deg) N-sigma BP Orbit Ref. Reference Modified
1900-Apr-14 02:20 < 00:01 Earth 0.298832284332115 0.298825655600941 0.298838913395616 6.6930092955236 6.69167698137856 2415123.597006070 0.729038961323608 61.9632238770409 0.703724930380067 -0.389084109924491 428224.05413175 T 118 CATAB v2.0c-linF95 2013-Apr-29 15:41:51 2013-Apr-29 15:41
1900-Jun-01 07:30 00:01 Earth 0.273571759534725 0.273567707725919 0.273575811659907 9.86981596814058 9.86882911222702 2415171.812608172 1.27309493255354 12.2539867451375 0.259974395789243 17.3281522955642 31136389.0132529 T 118 CATAB v2.0c-linF95 2013-Apr-29 15:41:51 2013-Apr-29 15:41
1901-Nov-21 07:30 < 00:01 Earth 0.304363176220286 0.304355717768591 0.304370634664388 22.8732823741331 22.8728996415923 2415709.812630382 0.132089501532153 362.596725601088 0.225639041130364 -0.333210152150154 1032747.5719198 T 118 CATAB v2.0c-linF95 2013-Apr-29 15:41:51 2013-Apr-29 15:41
1905-Apr-02 15:42 < 00:01 Earth 0.342739074466016 0.342731453210714 0.342746695716161 23.921369901233 23.9210449144958 2416938.154158831 0.133279759609302 373.55476343234 0.445580310307165 -0.255396033677975 467412.419567125 T 118 CATAB v2.0c-linF95 2013-Apr-29 15:41:51 2013-Apr-29 15:41
1906-Sep-15 06:07 00:01 Earth 0.297116611515565 0.297113241612218 0.297119981654809 11.2228889274877 11.2220898365282 2417468.754743354 1.43542727438822 9.82010582198284 0.701671005847259 23.6545677923964 18265448.2240745 T 118 CATAB v2.0c-linF95 2013-Apr-29 15:41:51 2013-Apr-29 15:41
1906-Nov-22 09:39 < 00:01 Earth 0.340386725473687 0.340380637359991 0.340392813751395 7.89023524080356 7.8892430913596 2417536.902259251 0.879096479549716 96.586676857464 0.614027124071494 -0.601736648507792 579413.534469869 T 118 CATAB v2.0c-linF95 2013-Apr-29 15:41:51 2013-Apr-29 15:41
1911-Mar-30 13:41 < 00:01 Earth 0.371187888830669 0.371182643645872 0.371193134114751 8.33752758152551 8.33666658044236 2419126.070404208 0.837508531936286 93.3032384643218 1.16630774199193 -0.712536864266967 499057.282289999 T 118 CATAB v2.0c-linF95 2013-Apr-29 15:41:51 2013-Apr-29 15:41
1911-Jun-18 08:17 00:01 Earth 0.314167728770975 0.314165084797304 0.31417037289899 11.921486937755 11.9207755058903 2419205.845315145 1.36584183490409 5.58276503260715 0.501748736687268 31.9522584469111 36576706.2709767 T 118 CATAB v2.0c-linF95 2013-Apr-29 15:41:51 2013-Apr-29 15:41
1912-Nov-24 22:18 < 00:01 Earth 0.388768080792496 0.388760997004923 0.388775164578245 25.4798418359843 25.4795728514453 2419731.428865854 0.119188607052232 350.680674986421 0.256116025871785 -0.284703450540052 1020137.83507397 T 118 CATAB v2.0c-linF95 2013-Apr-29 15:41:51 2013-Apr-29 15:41
1916-Apr-05 20:35 < 00:01 Earth 0.267067099415008 0.267060475101361 0.267073723719591 21.5982167898424 21.5977548571363 2420959.357693831 0.1216935444287 318.105787802566 0.470455781311072 -0.314011721559401 415258.861571335 T 118 CATAB v2.0c-linF95 2013-Apr-29 15:41:51 2013-Apr-29 15:41
1917-Sep-29 18:43 00:01 Earth 0.25774417903829 0.257740056211956 0.257748302174135 9.34999025228917 9.34888455050597 2421501.280067765 1.09888078875527 16.6114895576333 0.503831969608672 12.5764689362331 10797386.9374471 T 118 CATAB v2.0c-linF95 2013-Apr-29 15:41:51 2013-Apr-29 15:41
1922-Mar-23 01:06 < 00:01 Earth 0.417219140275355 0.417215876294979 0.417222404283852 9.14104524616793 9.14034658135903 2423136.545505888 0.590740623948872 68.2589527257267 1.40859986723797 -0.758866619364283 686616.911253696 T 118 CATAB v2.0c-linF95 2013-Apr-29 15:41:51 2013-Apr-29 15:41
1922-Jun-28 17:10 < 00:01 Earth 0.33528810815584 0.335286760464739 0.335289455890299 13.0693961326731 13.0687880693829 2423234.215324161 0.997670006084361 2.60531226612801 0.599836588845573 40.1112214689845 42489937.8123165 T 118 CATAB v2.0c-linF95 2013-Apr-29 15:41:51 2013-Apr-29 15:41
1923-Nov-28 19:59 < 00:01 Earth 0.457406577915156 0.457401662865108 0.457411492965522 27.6264018933836 27.6261910367444 2423752.332369374 0.0792000913968304 245.726756016503 0.284036577520829 -0.264823801692899 1042545.16837383 T 118 CATAB v2.0c-linF95 2013-Apr-29 15:41:51 2013-Apr-29 15:41
1927-Apr-09 19:44 < 00:01 Earth 0.196605613438364 0.19660136818661 0.196609858683181 19.4562831359912 19.4555865666795 2424980.322056489 0.081410993809017 198.101397449122 0.48970713276944 -0.400426449687487 374020.844407554 T 118 CATAB v2.0c-linF95 2013-Apr-29 15:41:51 2013-Apr-29 15:41
1928-Oct-23 06:18 < 00:01 Earth 0.199999243226079 0.199995430807538 0.200003055800667 7.69851419991501 7.69678348352505 2425542.762786851 0.241327239572422 45.2449818531177 0.134469795063771 1.91756761443885 4201280.71194668 T 118 CATAB v2.0c-linF95 2013-Apr-29 15:41:51 2013-Apr-29 15:41
1933-Jan-02 03:49 < 00:01 Mars 0.056894554574736 0.0568937850365612 0.0568953241190519 5.33449645813375 5.33355309296201 2427074.659127061 0.160687606020377 39.4872636318012 2.35538832964124 37.9480796160484 1624044.06948784 T 118 CATAB v2.0c-linF95 2013-Apr-29 15:41:51 2013-Apr-29 15:41
1933-Mar-16 16:02 < 00:01 Earth 0.457435389057685 0.457434113457238 0.457436664661658 9.79459179427888 9.79399707853186 2427148.167967994 0.261530919287005 29.1755345680416 1.61003655048956 -0.837551664585485 1600721.33722832 T 118 CATAB v2.0c-linF95 2013-Apr-29 15:41:51 2013-Apr-29 15:41
1933-Jul-08 07:34 < 00:01 Earth 0.349937887074516 0.349937474005137 0.349938300147605 13.9449107083079 13.9443646812633 2427261.814995100 0.447062147202714 1.36912845649971 0.817859401267164 25.0417363931802 34351249.473861 T 118 CATAB v2.0c-linF95 2013-Apr-29 15:41:51 2013-Apr-29 15:41
1938-Apr-12 15:39 < 00:01 Earth 0.12894067698742 0.128939683059479 0.128941670914712 17.4274320301333 17.4262462510495 2429001.152271308 0.0183888032992314 44.5030535021401 0.503630938077324 -0.766037042744041 555542.388007951 T 118 CATAB v2.0c-linF95 2013-Apr-29 15:41:51 2013-Apr-29 15:41
1939-Nov-01 13:03 < 00:01 Earth 0.134394980332614 0.134394469903888 0.134395490762727 9.53821393162942 9.53613514662542 2429569.043418528 0.015623765441236 12.5379229244983 0.108403879776359 0.503823204257966 1445738.94865084 T 118 CATAB v2.0c-linF95 2013-Apr-29 15:41:51 2013-Apr-29 15:41
